When you browse on this site, cookies collect data to enhance your experience and personalize the content and advertising you see.
Visit our Privacy Policy to learn more. By continuing to use the site, you agree to this use of cookies and data.
  • En España
  • Lista de países
  • Para 7 días
  • Temperatura del agua
  • El tiempo en el mapa
  • Informadores
  • user-avatar
    Iniciar sesión

    Tiempo cada hora Thimphu

    Hoy, 20 Octubre, Domingo

    Tiempo Temperatura Precipitaciones Viento Presión Humedad
    00:00 +6°C° 0 mm 1 mps 526 mmHg 84%
    01:00 +6°C° 0 mm 1 mps 525 mmHg 82%
    02:00 +6°C° 0 mm 1 mps 525 mmHg 80%
    03:00 +5°C° 0 mm 1 mps 524 mmHg 78%
    04:00 +5°C° 0 mm 1 mps 524 mmHg 76%
    05:00 +5°C° 0 mm 1 mps 524 mmHg 74%
    06:00 +5°C° 0 mm 1 mps 525 mmHg 75%
    07:00 +8°C° 0 mm 1 mps 527 mmHg 66%
    08:00 +11°C° 0 mm 1 mps 529 mmHg 57%
    09:00 +14°C° 0 mm 1 mps 531 mmHg 48%
    10:00 +15°C° 0 mm 2 mps 531 mmHg 46%
    11:00 +16°C° 0 mm 2 mps 531 mmHg 45%
    12:00 +17°C° 0 mm 3 mps 531 mmHg 42%
    13:00 +16°C° 0.2 mm 3 mps 530 mmHg 51%
    14:00 +14°C° 0.2 mm 3 mps 529 mmHg 59%
    15:00 +13°C° 0.2 mm 3 mps 528 mmHg 68%
    16:00 +12°C° 0.2 mm 2 mps 527 mmHg 77%
    17:00 +10°C° 0.2 mm 1 mps 525 mmHg 86%
    18:00 +7°C° 0 mm 0 mps 525 mmHg 95%
    19:00 +7°C° 0.1 mm 1 mps 525 mmHg 94%
    20:00 +7°C° 0.1 mm 1 mps 525 mmHg 92%
    21:00 +6°C° 0.1 mm 1 mps 525 mmHg 91%
    22:00 +6°C° 0 mm 1 mps 524 mmHg 89%
    23:00 +6°C° 0 mm 1 mps 524 mmHg 87%

    Mañana, 21 Octubre, Lunes

    Tiempo Temperatura Precipitaciones Viento Presión Humedad
    00:00 +6°C° 0 mm 1 mps 524 mmHg 85%
    01:00 +6°C° 0 mm 1 mps 524 mmHg 85%
    02:00 +5°C° 0 mm 1 mps 523 mmHg 84%
    03:00 +5°C° 0 mm 1 mps 523 mmHg 83%
    04:00 +5°C° 0 mm 1 mps 523 mmHg 83%
    05:00 +5°C° 0 mm 1 mps 523 mmHg 83%
    06:00 +5°C° 0 mm 1 mps 523 mmHg 82%
    07:00 +8°C° 0 mm 1 mps 525 mmHg 73%
    08:00 +11°C° 0 mm 1 mps 527 mmHg 63%
    09:00 +13°C° 0 mm 1 mps 529 mmHg 54%
    10:00 +14°C° 0.1 mm 2 mps 529 mmHg 54%
    11:00 +14°C° 0.1 mm 2 mps 528 mmHg 55%
    12:00 +15°C° 0.1 mm 2 mps 528 mmHg 55%
    13:00 +14°C° 0.3 mm 2 mps 527 mmHg 61%
    14:00 +13°C° 0.3 mm 2 mps 526 mmHg 68%
    15:00 +12°C° 0.3 mm 1 mps 525 mmHg 74%
    16:00 +11°C° 0.1 mm 1 mps 524 mmHg 80%
    17:00 +9°C° 0.1 mm 1 mps 523 mmHg 85%
    18:00 +7°C° 0.1 mm 0 mps 523 mmHg 91%
    19:00 +7°C° 0 mm 1 mps 523 mmHg 90%
    20:00 +7°C° 0 mm 1 mps 522 mmHg 90%
    21:00 +6°C° 0 mm 1 mps 522 mmHg 89%
    22:00 +6°C° 0 mm 1 mps 522 mmHg 88%
    23:00 +5°C° 0 mm 1 mps 522 mmHg 86%

    Pasado mañana, 22 Octubre, Martes

    Tiempo Temperatura Precipitaciones Viento Presión Humedad
    00:00 +5°C° 0 mm 1 mps 522 mmHg 85%
    01:00 +5°C° 0 mm 1 mps 521 mmHg 84%
    02:00 +4°C° 0 mm 1 mps 521 mmHg 82%
    03:00 +4°C° 0 mm 1 mps 521 mmHg 81%
    04:00 +4°C° 0 mm 1 mps 521 mmHg 79%
    05:00 +4°C° 0 mm 1 mps 521 mmHg 78%
    06:00 +4°C° 0 mm 1 mps 521 mmHg 76%
    07:00 +7°C° 0 mm 1 mps 523 mmHg 66%
    08:00 +10°C° 0 mm 1 mps 525 mmHg 56%
    09:00 +13°C° 0 mm 1 mps 528 mmHg 46%
    10:00 +14°C° 0 mm 2 mps 528 mmHg 43%
    11:00 +16°C° 0 mm 2 mps 528 mmHg 41%
    12:00 +17°C° 0 mm 3 mps 528 mmHg 39%
    13:00 +16°C° 0 mm 3 mps 527 mmHg 45%
    14:00 +14°C° 0 mm 3 mps 526 mmHg 52%
    15:00 +14°C° 0 mm 3 mps 526 mmHg 58%
    16:00 +12°C° 0.1 mm 2 mps 524 mmHg 71%
    17:00 +10°C° 0.1 mm 1 mps 523 mmHg 84%
    18:00 +6°C° 0.1 mm 0 mps 522 mmHg 97%
    19:00 +6°C° 0 mm 0 mps 522 mmHg 96%
    20:00 +6°C° 0 mm 0 mps 523 mmHg 96%
    21:00 +6°C° 0 mm 0 mps 523 mmHg 95%
    22:00 +6°C° 0 mm 0 mps 523 mmHg 95%
    23:00 +5°C° 0 mm 0 mps 523 mmHg 94%

    23 Octubre, Miércoles

    Tiempo Temperatura Precipitaciones Viento Presión Humedad
    00:00 +5°C° 0 mm 0 mps 523 mmHg 94%
    01:00 +5°C° 0 mm 0 mps 522 mmHg 93%
    02:00 +5°C° 0 mm 1 mps 522 mmHg 92%
    03:00 +5°C° 0 mm 1 mps 521 mmHg 90%
    04:00 +5°C° 0 mm 1 mps 521 mmHg 89%
    05:00 +4°C° 0 mm 1 mps 521 mmHg 88%
    06:00 +4°C° 0 mm 1 mps 521 mmHg 87%
    07:00 +7°C° 0 mm 1 mps 523 mmHg 78%
    08:00 +9°C° 0 mm 1 mps 525 mmHg 69%
    09:00 +12°C° 0 mm 1 mps 527 mmHg 61%
    10:00 +13°C° 0 mm 2 mps 527 mmHg 56%
    11:00 +14°C° 0 mm 2 mps 527 mmHg 52%
    12:00 +14°C° 0 mm 3 mps 528 mmHg 47%
    13:00 +15°C° 0.1 mm 2 mps 527 mmHg 53%
    14:00 +14°C° 0.1 mm 2 mps 526 mmHg 58%
    15:00 +13°C° 0.1 mm 2 mps 525 mmHg 64%
    16:00 +10°C° 0.1 mm 2 mps 524 mmHg 75%
    17:00 +9°C° 0.1 mm 1 mps 523 mmHg 86%
    18:00 +6°C° 0.1 mm 0 mps 522 mmHg 97%
    19:00 +6°C° 0.1 mm 0 mps 522 mmHg 96%
    20:00 +6°C° 0.1 mm 0 mps 523 mmHg 96%
    21:00 +6°C° 0.1 mm 0 mps 523 mmHg 95%
    22:00 +5°C° 0 mm 0 mps 523 mmHg 95%
    23:00 +5°C° 0 mm 0 mps 523 mmHg 94%

    24 Octubre, Jueves

    Tiempo Temperatura Precipitaciones Viento Presión Humedad
    00:00 +5°C° 0 mm 0 mps 523 mmHg 94%
    01:00 +5°C° 0 mm 0 mps 523 mmHg 93%
    02:00 +5°C° 0 mm 0 mps 523 mmHg 92%
    03:00 +5°C° 0 mm 0 mps 523 mmHg 91%
    04:00 +5°C° 0 mm 0 mps 523 mmHg 91%
    05:00 +5°C° 0 mm 0 mps 523 mmHg 91%
    06:00 +5°C° 0 mm 0 mps 523 mmHg 90%
    07:00 +7°C° 0.1 mm 1 mps 524 mmHg 85%
    08:00 +9°C° 0.1 mm 1 mps 526 mmHg 79%
    09:00 +11°C° 0.1 mm 1 mps 527 mmHg 74%
    10:00 +10°C° 0.1 mm 2 mps 527 mmHg 70%
    11:00 +12°C° 0.1 mm 2 mps 527 mmHg 66%
    12:00 +13°C° 0.1 mm 2 mps 527 mmHg 62%
    13:00 +12°C° 0.2 mm 2 mps 527 mmHg 67%
    14:00 +10°C° 0.2 mm 2 mps 526 mmHg 72%
    15:00 +10°C° 0.2 mm 2 mps 525 mmHg 77%
    16:00 +9°C° 0.2 mm 2 mps 524 mmHg 84%
    17:00 +8°C° 0.2 mm 1 mps 524 mmHg 91%
    18:00 +7°C° 0.2 mm 1 mps 523 mmHg 97%
    19:00 +7°C° 0.2 mm 1 mps 523 mmHg 97%
    20:00 +6°C° 0.2 mm 0 mps 524 mmHg 97%
    21:00 +5°C° 0.2 mm 0 mps 524 mmHg 97%
    22:00 +5°C° 0.1 mm 0 mps 524 mmHg 96%
    23:00 +5°C° 0.1 mm 0 mps 523 mmHg 95%

    25 Octubre, Viernes

    Tiempo Temperatura Precipitaciones Viento Presión Humedad
    00:00 +5°C° 0.1 mm 0 mps 523 mmHg 94%
    01:00 +4°C° 0 mm 0 mps 523 mmHg 94%
    02:00 +4°C° 0 mm 0 mps 523 mmHg 94%
    03:00 +4°C° 0 mm 0 mps 522 mmHg 93%
    04:00 +4°C° 0 mm 0 mps 522 mmHg 93%
    05:00 +4°C° 0 mm 0 mps 522 mmHg 93%
    06:00 +4°C° 0 mm 0 mps 522 mmHg 93%
    07:00 +6°C° 0.1 mm 1 mps 524 mmHg 87%
    08:00 +8°C° 0.1 mm 1 mps 525 mmHg 82%
    09:00 +10°C° 0.1 mm 1 mps 526 mmHg 76%
    10:00 +10°C° 0.1 mm 1 mps 526 mmHg 73%
    11:00 +11°C° 0.1 mm 1 mps 526 mmHg 71%
    12:00 +12°C° 0.1 mm 2 mps 526 mmHg 68%
    13:00 +10°C° 0.4 mm 2 mps 526 mmHg 74%
    14:00 +10°C° 0.4 mm 1 mps 525 mmHg 80%
    15:00 +9°C° 0.4 mm 1 mps 524 mmHg 85%
    16:00 +8°C° 0.2 mm 1 mps 523 mmHg 89%
    17:00 +7°C° 0.2 mm 1 mps 523 mmHg 92%
    18:00 +6°C° 0.2 mm 1 mps 523 mmHg 95%
    19:00 +6°C° 0.4 mm 1 mps 523 mmHg 95%
    20:00 +6°C° 0.4 mm 1 mps 523 mmHg 95%
    21:00 +6°C° 0.4 mm 1 mps 524 mmHg 95%
    22:00 +5°C° 0 mm 0 mps 524 mmHg 94%
    23:00 +5°C° 0 mm 0 mps 524 mmHg 92%
    Mostrar más